Printer-friendly version

IAU Minor Planet Center

Minor Planet Center

MPEC 2005-E72 : 2005 EE169

The following Minor Planet Electronic Circular may be linked-to from your own Web pages, but must not otherwise be redistributed electronically.


Read MPEC 2005-E71 Read MPEC 2005-E73


M.P.E.C. 2005-E72                                Issued 2005 Mar. 13, 11:48 UT

     The Minor Planet Electronic Circulars contain information on unusual
         minor planets and routine data on comets.  They are published
   on behalf of Commission 20 of the International Astronomical Union by the
          Minor Planet Center, Smithsonian Astrophysical Observatory,
                          Cambridge, MA 02138, U.S.A.

                  Supported in part by the Brinson Foundation
             Prepared using the Tamkin Foundation Computer Network

                              MPC@CFA.HARVARD.EDU
          URL http://cfa-www.harvard.edu/iau/mpc.html  ISSN 1523-6714

                                  2005 EE169

Observations:
     K05EG9E* C2005 03 10.24082 09 05 17.63 +17 31 27.0          21.3 R EE072G96
     K05EG9E  C2005 03 10.24881 09 05 16.98 +17 31 36.5          21.0 R EE072G96
     K05EG9E  C2005 03 10.25684 09 05 16.36 +17 31 45.0          19.5 R EE072G96
     K05EG9E  C2005 03 10.26479 09 05 15.62 +17 31 53.8          20.0 R EE072G96
     K05EG9E  C2005 03 10.30000 09 05 12.85 +17 32 31.0          20.7 R EE072G96
     K05EG9E  C2005 03 10.30774 09 05 12.27 +17 32 39.9          21.1 R EE072G96
     K05EG9E  C2005 03 10.32292 09 05 11.07 +17 32 55.6          20.6 R EE072G96
     K05EG9E  C2005 03 11.21836 09 04 22.86 +17 50 00.6          20.7 R EE072G96
     K05EG9E  C2005 03 11.22500 09 04 22.35 +17 50 08.4          20.7 R EE072G96
     K05EG9E  C2005 03 11.23168 09 04 21.80 +17 50 15.8          20.9 R EE072G96
     K05EG9E  C2005 03 11.23832 09 04 21.24 +17 50 23.3          20.9 R EE072G96
     K05EG9E  C2005 03 13.24309 09 02 29.68 +18 31 53.7          21.3 R EE072G96
     K05EG9E  C2005 03 13.25034 09 02 29.11 +18 32 02.9          20.2 R EE072G96
     K05EG9E  C2005 03 13.25752 09 02 28.48 +18 32 12.4          19.9 R EE072G96
     K05EG9E  C2005 03 13.26472 09 02 27.88 +18 32 21.7          20.7 R EE072G96

Observer details:
G96 Mt. Lemmon Survey.  Observer E. J. Christensen.  Measurers E. C. Beshore,
    C. M. Casey, E. J. Christensen, G. J. Garradd, R. E. Hill, S. M. Larson,
    R. H. McNaught.  1.5-m reflector + CCD.

Orbital elements:
2005 EE169
Epoch 2005 Mar. 11.0 TT = JDT 2453440.5                 MPC
M 348.75673              (2000.0)            P               Q
n   0.29540007     Peri.   49.35556     -0.85757062     +0.51431038
a   2.2328642      Node   161.59185     -0.47887122     -0.79292543
e   0.5590090      Incl.    1.37556     -0.18776311     -0.32673247
P   3.34           H   23.9           G   0.15
From 15 observations 2005 Mar. 10-13.

Ephemeris:
2005 EE169               a,e,i = 2.23, 0.56, 1                   q = 0.9847
Date    TT    R. A. (2000) Decl.     Delta      r     Elong.  Phase     V
2005 03 11    09 04.59   +17 46.1    0.127    1.098   142.9    33.1    21.0
2005 03 12    09 03.65   +18 05.9    0.122    1.092   141.6    34.4    21.0
2005 03 13    09 02.73   +18 26.9    0.117    1.087   140.3    35.7    20.9
2005 03 14    09 01.82   +18 49.2    0.113    1.082   139.0    37.1    20.8
2005 03 15    09 00.92   +19 13.1    0.108    1.077   137.7    38.5    20.8
2005 03 16    09 00.04   +19 38.7    0.103    1.072   136.3    39.9    20.7
2005 03 17    08 59.16   +20 06.3    0.0983   1.067   135.0    41.3    20.6
2005 03 18    08 58.29   +20 36.1    0.0936   1.062   133.6    42.7    20.5
2005 03 19    08 57.42   +21 08.6    0.0889   1.057   132.3    44.2    20.5
2005 03 20    08 56.55   +21 44.1    0.0842   1.053   130.9    45.6    20.4
2005 03 21    08 55.67   +22 23.3    0.0795   1.048   129.5    47.2    20.3
2005 03 22    08 54.78   +23 06.9    0.0749   1.044   128.1    48.7    20.2
2005 03 23    08 53.85   +23 55.6    0.0703   1.040   126.6    50.3    20.1
2005 03 24    08 52.89   +24 50.6    0.0657   1.036   125.1    51.9    20.0
2005 03 25    08 51.87   +25 53.4    0.0611   1.032   123.5    53.7    19.9
2005 03 26    08 50.75   +27 05.8    0.0565   1.028   121.9    55.5    19.7
2005 03 27    08 49.51   +28 30.3    0.0520   1.025   120.1    57.4    19.6
2005 03 28    08 48.07   +30 10.3    0.0475   1.021   118.2    59.4    19.5
2005 03 29    08 46.37   +32 10.6    0.0430   1.018   116.2    61.7    19.3
2005 03 30    08 44.26   +34 37.7    0.0386   1.015   113.9    64.1    19.1
2005 03 31    08 41.52   +37 41.5    0.0343   1.012   111.2    67.0    19.0
2005 04 01    08 37.74   +41 36.2    0.0302   1.009   108.1    70.3    18.8
2005 04 02    08 32.09   +46 43.0    0.0262   1.006   104.2    74.3    18.6
2005 04 03    08 22.63   +53 32.8    0.0225   1.004    99.3    79.4    18.4
2005 04 04    08 03.41   +62 44.7    0.0192   1.001    93.0    85.9    18.3
2005 04 05    07 05.19   +74 34.1    0.0167   0.999    84.8    94.2    18.4
2005 04 06    01 43.07   +81 33.4    0.0153   0.997    75.3   103.8    18.6
2005 04 07    22 25.43   +67 45.3    0.0153   0.995    66.5   112.7    19.1
2005 04 08    21 47.16   +52 02.8    0.0166   0.993    60.6   118.5    19.7
2005 04 09    21 32.35   +39 18.2    0.0191   0.992    58.2   120.9    20.2
2005 04 10    21 24.62   +29 47.8    0.0224   0.990    58.0   120.9    20.5
2005 04 11    21 19.92   +22 48.9    0.0261   0.989    58.8   119.9    20.8
2005 04 12    21 16.81   +17 37.1    0.0300   0.988    60.1   118.4    21.0
2005 04 13    21 14.63   +13 39.6    0.0342   0.987    61.5   116.7    21.1
2005 04 14    21 13.05   +10 34.4    0.0385   0.986    63.0   115.0    21.3
2005 04 15    21 11.88   +08 06.8    0.0429   0.985    64.4   113.4    21.4
2005 04 16    21 11.01   +06 06.8    0.0474   0.985    65.8   111.7    21.5
2005 04 17    21 10.36   +04 27.6    0.0519   0.985    67.1   110.1    21.6
2005 04 18    21 09.88   +03 04.4    0.0564   0.985    68.3   108.6    21.7
2005 04 19    21 09.53   +01 53.7    0.0609   0.985    69.6   107.1    21.8
2005 04 20    21 09.29   +00 53.0    0.0655   0.985    70.8   105.6    21.9

Timothy B. Spahr             (C) Copyright 2005 MPC           M.P.E.C. 2005-E72

Read MPEC 2005-E71 Read MPEC 2005-E73


Our Web policy. Index to the CBAT/MPC/ICQ pages.


Valid HTML 4.01!